Regional Weather Roundup
Issued by NWS

Home | Current Version | Previous Version | Text Only | Print | Product List | Glossary On
Versions: 1 2 3 4 5 6 7 8 9 10 11 12 13 14 15 16 17 18 19 20 21 22 23 24 25 26 27 28 29 30 31 32 33 34 35 36 37 38 39 40 41 42 43 44 45 46 47 48 49 50
000
ASUS43 KBIS 200510
RWRND

NORTH DAKOTA REGIONAL WEATHER ROUNDUP
NATIONAL WEATHER SERVICE BISMARCK ND
1100 PM CST MON FEB 19 2018

NOTE: "FAIR" INDICATES FEW OR NO CLOUDS BELOW 12,000 FEET WITH NO
SIGNIFICANT WEATHER AND/OR OBSTRUCTIONS TO VISIBILITY.


NDZ001>003-009>011-017-200600-
NORTHWEST NORTH DAKOTA

CITY           SKY/WX    TMP DP  RH WIND       PRES   REMARKS
WILLISTON      LGT SNOW   3  -1  83 SW3       30.15S FOG
MINOT          CLOUDY     5   0  79 CALM      30.17R
MINOT AFB      CLOUDY     4  -1  79 W3        30.16R
$$

NDZ018>021-031>035-040>046-200600-
SOUTHWEST NORTH DAKOTA

CITY           SKY/WX    TMP DP  RH WIND       PRES   REMARKS
BISMARCK       LGT SNOW   4  -2  76 N10       30.12F WCI -11
DICKINSON      LGT SNOW   2  -3  80 N3        30.03F
GARRISON         N/A      2  -1  88 NW9       30.10F WCI -13
HETTINGER ARPT CLOUDY     0  -5  79 N7        30.05S WCI -13
$$

NDZ004>008-012>016-024-026-027-054-200600-
NORTHEAST NORTH DAKOTA

CITY           SKY/WX    TMP DP  RH WIND       PRES   REMARKS
GRAND FORKS    LGT SNOW   5  -2  72 N14       30.19R WCI -12
GRND FRKS AFB  CLOUDY     3  -2  78 N13       30.19R WCI -14
DEVILS LAKE    LGT SNOW   2  -2  83 N10       30.15F FOG     WCI -14
$$

NDZ022-023-025-028>030-036>039-047>053-200600-
SOUTHEAST NORTH DAKOTA

CITY           SKY/WX    TMP DP  RH WIND       PRES   REMARKS
FARGO          LGT SNOW   6   2  83 N21       30.13R FOG     WCI -14
JAMESTOWN      LGT SNOW   3  -1  83 N17       30.10S FOG     WCI -17
$$





USA.gov is the U.S. government's official web portal to all federal, state and local government web resources and services.